| time (UTC) | temp F | wind direction | speed knots | gust knots | rain 1hr in | rain 24hr in | rain mn in | humidity % | barometer mb |
| 20260509054010 | 57 | 130 | 0.9 | 4.3 | 0.00 | 0.00 | 0.00 | 63 | 1011.0 |
| 20260509053509 | 57 | 141 | 0.9 | 4.3 | 0.00 | 0.00 | 0.00 | 62 | 1011.0 |
| 20260509053100 | 57 | 160 | 0.9 | 2.6 | 0.00 | 0.00 | 0.00 | 62 | 1011.0 |
| 20260509052515 | 57 | 97 | 0.9 | 3.5 | 0.00 | 0.00 | 0.00 | 62 | 1011.0 |
| 20260509052002 | 57 | 129 | 1.7 | 3.5 | 0.00 | 0.00 | 0.00 | 60 | 1011.0 |
| 20260509051509 | 57 | 179 | 0.9 | 3.5 | 0.00 | 0.00 | 0.00 | 60 | 1011.0 |
| 20260509051004 | 58 | 148 | 1.7 | 2.6 | 0.00 | 0.00 | 0.00 | 60 | 1011.1 |
| 20260509050504 | 58 | 159 | 0.9 | 3.5 | 0.00 | 0.00 | 0.00 | 59 | 1011.0 |
| 20260509050032 | 58 | 174 | 1.7 | 4.3 | 0.00 | 0.00 | 0.00 | 59 | 1011.0 |
| 20260509045505 | 58 | 176 | 1.7 | 7.0 | 0.00 | 0.00 | 0.00 | 59 | 1010.9 |
| 20260509045008 | 58 | 159 | 0.9 | 7.0 | 0.00 | 0.00 | 0.00 | 60 | 1010.8 |
| 20260509044518 | 57 | 129 | 2.6 | 6.1 | 0.00 | 0.00 | 0.00 | 62 | 1010.8 |
| 20260509044007 | 56 | 134 | 1.7 | 4.3 | 0.00 | 0.00 | 0.00 | 65 | 1010.9 |
| 20260509043507 | 55 | 160 | 0.9 | 2.6 | 0.00 | 0.00 | 0.00 | 66 | 1010.9 |
| 20260509043020 | 55 | 180 | 0.0 | 0.0 | 0.00 | 0.00 | 0.00 | 69 | 1010.9 |
| 20260509042510 | 54 | 180 | 0.0 | 0.0 | 0.00 | 0.00 | 0.00 | 72 | 1010.8 |
| 20260509042010 | 55 | 180 | 0.0 | 0.0 | 0.00 | 0.00 | 0.00 | 70 | 1010.8 |
| 20260509041526 | 55 | 180 | 0.0 | 0.0 | 0.00 | 0.00 | 0.00 | 69 | 1010.9 |
| 20260509041010 | 55 | 180 | 0.0 | 0.0 | 0.00 | 0.00 | 0.00 | 68 | 1010.9 |
| 20260509040508 | 55 | 180 | 0.0 | 0.0 | 0.00 | 0.00 | 0.00 | 67 | 1010.9 |
| 20260509040009 | 55 | 180 | 0.0 | 0.0 | 0.00 | 0.00 | 0.00 | 69 | 1010.9 |
| 20260509035506 | 55 | 180 | 0.0 | 0.0 | 0.00 | 0.00 | 0.00 | 68 | 1010.9 |
| 20260509035008 | 55 | 180 | 0.0 | 0.0 | 0.00 | 0.00 | 0.00 | 68 | 1010.9 |
| 20260509034516 | 55 | 180 | 0.0 | 0.9 | 0.00 | 0.00 | 0.00 | 73 | 1011.0 |
| 20260509034011 | 55 | 180 | 0.0 | 1.7 | 0.00 | 0.00 | 0.00 | 72 | 1011.0 |
| 20260509033507 | 56 | 180 | 0.0 | 1.7 | 0.00 | 0.00 | 0.00 | 70 | 1011.1 |
| 20260509033018 | 56 | 186 | 0.0 | 2.6 | 0.00 | 0.00 | 0.00 | 67 | 1011.2 |
| 20260509032507 | 57 | 141 | 0.9 | 1.7 | 0.00 | 0.00 | 0.00 | 64 | 1011.2 |
| 20260509032013 | 57 | 153 | 0.0 | 0.0 | 0.00 | 0.00 | 0.00 | 64 | 1011.3 |
| 20260509031524 | 57 | 153 | 0.0 | 1.7 | 0.00 | 0.00 | 0.00 | 62 | 1011.4 |
| 20260509031010 | 57 | 153 | 0.0 | 1.7 | 0.00 | 0.00 | 0.00 | 61 | 1011.4 |
| 20260509030512 | 57 | 153 | 0.0 | 1.7 | 0.00 | 0.00 | 0.00 | 62 | 1011.4 |
| 20260509030033 | 56 | 153 | 0.0 | 1.7 | 0.00 | 0.00 | 0.00 | 64 | 1011.4 |
| 20260509025510 | 56 | 153 | 0.0 | 0.0 | 0.00 | 0.00 | 0.00 | 68 | 1011.4 |
| 20260509025007 | 57 | 153 | 0.0 | 0.0 | 0.00 | 0.00 | 0.00 | 67 | 1011.6 |
| 20260509024512 | 57 | 153 | 0.0 | 0.0 | 0.00 | 0.00 | 0.00 | 62 | 1011.5 |
| 20260509024006 | 57 | 153 | 0.0 | 0.0 | 0.00 | 0.00 | 0.00 | 62 | 1011.5 |
| 20260509023505 | 57 | 153 | 0.0 | 0.0 | 0.00 | 0.00 | 0.00 | 62 | 1011.6 |
| 20260509023026 | 58 | 152 | 0.0 | 0.0 | 0.00 | 0.00 | 0.00 | 62 | 1011.5 |
| 20260509022507 | 58 | 152 | 0.0 | 1.7 | 0.00 | 0.00 | 0.00 | 61 | 1011.6 |
| 20260509022010 | 59 | 152 | 0.0 | 1.7 | 0.00 | 0.00 | 0.00 | 58 | 1011.6 |
| 20260509021524 | 58 | 152 | 0.0 | 0.9 | 0.00 | 0.00 | 0.00 | 58 | 1011.7 |
| 20260509021010 | 58 | 152 | 0.0 | 1.7 | 0.00 | 0.00 | 0.00 | 62 | 1011.7 |
| 20260509020509 | 59 | 152 | 0.0 | 1.7 | 0.00 | 0.00 | 0.00 | 60 | 1011.6 |
| 20260509020027 | 59 | 152 | 0.0 | 0.9 | 0.00 | 0.00 | 0.00 | 60 | 1011.6 |
| 20260509015507 | 59 | 151 | 0.0 | 0.9 | 0.00 | 0.00 | 0.00 | 61 | 1011.6 |
| 20260509015010 | 59 | 151 | 0.0 | 0.0 | 0.00 | 0.00 | 0.00 | 61 | 1011.7 |
| 20260509014531 | 59 | 151 | 0.0 | 0.0 | 0.00 | 0.00 | 0.00 | 58 | 1011.7 |
| 20260509014010 | 59 | 151 | 0.0 | 0.9 | 0.00 | 0.00 | 0.00 | 56 | 1011.7 |
| 20260509013507 | 60 | 150 | 0.0 | 1.7 | 0.00 | 0.00 | 0.00 | 54 | 1011.6 |
| 20260509013012 | 61 | 147 | 0.0 | 1.7 | 0.00 | 0.00 | 0.00 | 54 | 1011.6 |
| 20260509012509 | 61 | 113 | 0.0 | 1.7 | 0.00 | 0.00 | 0.00 | 54 | 1011.6 |
| 20260509012003 | 61 | 136 | 0.9 | 1.7 | 0.00 | 0.00 | 0.00 | 52 | 1011.7 |
| 20260509011504 | 62 | 145 | 0.0 | 1.7 | 0.00 | 0.00 | 0.00 | 51 | 1011.6 |
| 20260509011002 | 62 | 139 | 0.0 | 1.7 | 0.00 | 0.00 | 0.00 | 50 | 1011.6 |
| 20260509010504 | 62 | 150 | 0.0 | 1.7 | 0.00 | 0.00 | 0.00 | 50 | 1011.5 |
| 20260509010011 | 62 | 129 | 0.0 | 1.7 | 0.00 | 0.00 | 0.00 | 51 | 1011.5 |
| 20260509005504 | 62 | 146 | 0.0 | 1.7 | 0.00 | 0.00 | 0.00 | 50 | 1011.5 |
| 20260509005004 | 63 | 78 | 0.9 | 1.7 | 0.00 | 0.00 | 0.00 | 49 | 1011.4 |
| 20260509004505 | 63 | 155 | 0.0 | 2.6 | 0.00 | 0.00 | 0.00 | 48 | 1011.4 |
| 20260509004004 | 64 | 173 | 1.7 | 2.6 | 0.00 | 0.00 | 0.00 | 47 | 1011.5 |
| 20260509003504 | 64 | 153 | 0.9 | 3.5 | 0.00 | 0.00 | 0.00 | 46 | 1011.6 |
| 20260509003012 | 65 | 156 | 0.9 | 3.5 | 0.00 | 0.00 | 0.00 | 45 | 1011.6 |
| 20260509002508 | 65 | 159 | 0.9 | 3.5 | 0.00 | 0.00 | 0.00 | 44 | 1011.6 |
| 20260509002007 | 66 | 145 | 0.9 | 3.5 | 0.00 | 0.00 | 0.00 | 44 | 1011.6 |
| 20260509001516 | 66 | 157 | 0.9 | 3.5 | 0.00 | 0.00 | 0.00 | 44 | 1011.8 |
| 20260509001006 | 67 | 169 | 0.0 | 5.2 | 0.00 | 0.00 | 0.00 | 44 | 1011.8 |
| 20260509000507 | 67 | 159 | 1.7 | 5.2 | 0.00 | 0.00 | 0.00 | 44 | 1011.9 |
| 20260509000007 | 67 | 172 | 1.7 | 4.3 | 0.00 | 0.00 | 0.00 | 42 | 1011.9 |
| 20260508235503 | 68 | 174 | 2.6 | 5.2 | 0.00 | 0.00 | 0.00 | 41 | 1012.0 |
| 20260508235004 | 68 | 145 | 2.6 | 7.0 | 0.00 | 0.00 | 0.00 | 40 | 1012.0 |
| 20260508234506 | 68 | 150 | 2.6 | 7.0 | 0.00 | 0.00 | 0.00 | 41 | 1012.0 |
| 20260508234003 | 68 | 148 | 2.6 | 7.0 | 0.00 | 0.00 | 0.00 | 42 | 1012.1 |
| 20260508233503 | 69 | 165 | 3.5 | 7.0 | 0.00 | 0.00 | 0.00 | 40 | 1012.2 |
| 20260508233007 | 69 | 178 | 2.6 | 5.2 | 0.00 | 0.00 | 0.00 | 40 | 1012.2 |
| 20260508232504 | 69 | 148 | 1.7 | 4.3 | 0.00 | 0.00 | 0.00 | 41 | 1012.3 |
| 20260508232007 | 69 | 139 | 0.9 | 7.8 | 0.00 | 0.00 | 0.00 | 41 | 1012.3 |
| 20260508231512 | 69 | 172 | 2.6 | 8.7 | 0.00 | 0.00 | 0.00 | 40 | 1012.3 |
| 20260508231009 | 69 | 139 | 2.6 | 8.7 | 0.00 | 0.00 | 0.00 | 39 | 1012.3 |
| 20260508230508 | 69 | 166 | 2.6 | 7.0 | 0.00 | 0.00 | 0.00 | 39 | 1012.3 |
| 20260508230020 | 69 | 156 | 4.3 | 7.8 | 0.00 | 0.00 | 0.00 | 38 | 1012.4 |
| 20260508225510 | 69 | 163 | 3.5 | 7.8 | 0.00 | 0.00 | 0.00 | 38 | 1012.4 |
| 20260508225004 | 69 | 114 | 2.6 | 10.4 | 0.00 | 0.00 | 0.00 | 37 | 1012.4 |
| 20260508224504 | 70 | 158 | 5.2 | 10.4 | 0.00 | 0.00 | 0.00 | 36 | 1012.4 |
| 20260508224003 | 70 | 220 | 3.5 | 9.6 | 0.00 | 0.00 | 0.00 | 39 | 1012.4 |
| 20260508223503 | 70 | 186 | 3.5 | 9.6 | 0.00 | 0.00 | 0.00 | 37 | 1012.4 |
| 20260508223008 | 70 | 171 | 4.3 | 9.6 | 0.00 | 0.00 | 0.00 | 35 | 1012.4 |
| 20260508222505 | 70 | 205 | 4.3 | 9.6 | 0.00 | 0.00 | 0.00 | 36 | 1012.4 |
| 20260508222005 | 70 | 44 | 4.3 | 9.6 | 0.00 | 0.00 | 0.00 | 36 | 1012.3 |
| 20260508221513 | 70 | 65 | 2.6 | 11.3 | 0.00 | 0.00 | 0.00 | 36 | 1012.4 |
| 20260508221005 | 70 | 36 | 5.2 | 11.3 | 0.00 | 0.00 | 0.00 | 34 | 1012.4 |
| 20260508220506 | 70 | 179 | 1.7 | 10.4 | 0.00 | 0.00 | 0.00 | 35 | 1012.3 |
| 20260508220018 | 70 | 159 | 4.3 | 10.4 | 0.00 | 0.00 | 0.00 | 35 | 1012.4 |
| 20260508215510 | 70 | 169 | 3.5 | 9.6 | 0.00 | 0.00 | 0.00 | 36 | 1012.3 |
| 20260508215008 | 70 | 124 | 4.3 | 9.6 | 0.00 | 0.00 | 0.00 | 35 | 1012.4 |
| 20260508214522 | 70 | 155 | 3.5 | 9.6 | 0.00 | 0.00 | 0.00 | 36 | 1012.4 |
| 20260508214009 | 71 | 176 | 5.2 | 9.6 | 0.00 | 0.00 | 0.00 | 33 | 1012.5 |
| 20260508213501 | 71 | 122 | 3.5 | 9.6 | 0.00 | 0.00 | 0.00 | 34 | 1012.4 |
| 20260508213006 | 70 | 187 | 2.6 | 9.6 | 0.00 | 0.00 | 0.00 | 37 | 1012.4 |
| 20260508212503 | 71 | 124 | 4.3 | 9.6 | 0.00 | 0.00 | 0.00 | 33 | 1012.5 |
| 20260508212007 | 71 | 186 | 3.5 | 8.7 | 0.00 | 0.00 | 0.00 | 35 | 1012.5 |
| 20260508211508 | 71 | 167 | 4.3 | 10.4 | 0.00 | 0.00 | 0.00 | 37 | 1012.4 |
| 20260508211006 | 71 | 202 | 5.2 | 10.4 | 0.00 | 0.00 | 0.00 | 35 | 1012.5 |
| 20260508210506 | 71 | 180 | 4.3 | 7.8 | 0.00 | 0.00 | 0.00 | 36 | 1012.5 |
| 20260508210016 | 70 | 93 | 5.2 | 9.6 | 0.00 | 0.00 | 0.00 | 35 | 1012.4 |
| 20260508205507 | 70 | 167 | 4.3 | 9.6 | 0.00 | 0.00 | 0.00 | 36 | 1012.6 |
| 20260508205005 | 70 | 184 | 4.3 | 10.4 | 0.00 | 0.00 | 0.00 | 35 | 1012.7 |
| 20260508204522 | 70 | 159 | 5.2 | 11.3 | 0.00 | 0.00 | 0.00 | 35 | 1012.8 |
| 20260508204009 | 71 | 167 | 6.1 | 11.3 | 0.00 | 0.00 | 0.00 | 34 | 1012.9 |
| 20260508203509 | 71 | 172 | 7.0 | 9.6 | 0.00 | 0.00 | 0.00 | 37 | 1013.0 |
| 20260508203027 | 70 | 172 | 4.3 | 10.4 | 0.00 | 0.00 | 0.00 | 36 | 1012.9 |
| 20260508202510 | 70 | 216 | 4.3 | 13.0 | 0.00 | 0.00 | 0.00 | 36 | 1013.1 |
| 20260508202002 | 70 | 173 | 4.3 | 13.0 | 0.00 | 0.00 | 0.00 | 37 | 1013.2 |
| 20260508201509 | 70 | 214 | 2.6 | 12.2 | 0.00 | 0.00 | 0.00 | 35 | 1013.2 |
| 20260508201012 | 71 | 205 | 7.0 | 12.2 | 0.00 | 0.00 | 0.00 | 37 | 1013.3 |
| 20260508200506 | 70 | 158 | 3.5 | 12.2 | 0.00 | 0.00 | 0.00 | 33 | 1013.4 |
| 20260508200011 | 70 | 186 | 7.0 | 12.2 | 0.00 | 0.00 | 0.00 | 32 | 1013.6 |
| 20260508195507 | 71 | 193 | 4.3 | 12.2 | 0.00 | 0.00 | 0.00 | 32 | 1013.6 |
| 20260508195007 | 70 | 126 | 5.2 | 12.2 | 0.00 | 0.00 | 0.00 | 36 | 1013.7 |
| 20260508194518 | 71 | 219 | 6.1 | 10.4 | 0.00 | 0.00 | 0.00 | 34 | 1013.7 |
| 20260508194007 | 70 | 193 | 5.2 | 9.6 | 0.00 | 0.00 | 0.00 | 34 | 1013.7 |
| 20260508193509 | 70 | 181 | 4.3 | 9.6 | 0.00 | 0.00 | 0.00 | 32 | 1013.6 |
| 20260508193025 | 70 | 196 | 2.6 | 10.4 | 0.00 | 0.00 | 0.00 | 36 | 1013.7 |
| 20260508192509 | 70 | 96 | 4.3 | 10.4 | 0.00 | 0.00 | 0.00 | 36 | 1013.7 |
| 20260508192012 | 70 | 156 | 6.1 | 10.4 | 0.00 | 0.00 | 0.00 | 35 | 1013.9 |
| 20260508191528 | 70 | 124 | 3.5 | 7.8 | 0.00 | 0.00 | 0.00 | 35 | 1013.9 |
| 20260508191008 | 70 | 195 | 1.7 | 7.8 | 0.00 | 0.00 | 0.00 | 35 | 1013.8 |
| 20260508190506 | 70 | 124 | 3.5 | 8.7 | 0.00 | 0.00 | 0.00 | 35 | 1013.9 |
| 20260508190010 | 70 | 90 | 2.6 | 9.6 | 0.00 | 0.00 | 0.00 | 37 | 1013.8 |
| 20260508185508 | 69 | 184 | 5.2 | 9.6 | 0.00 | 0.00 | 0.00 | 1014.0 | |
| 20260508185008 | 69 | 195 | 3.5 | 7.8 | 0.00 | 0.00 | 0.00 | 37 | 1014.1 |
| 20260508184516 | 70 | 32 | 3.5 | 7.8 | 0.00 | 0.00 | 0.00 | 37 | 1014.1 |
| 20260508184008 | 70 | 150 | 2.6 | 9.6 | 0.00 | 0.00 | 0.00 | 36 | 1014.2 |
| 20260508183505 | 69 | 80 | 2.6 | 9.6 | 0.00 | 0.00 | 0.00 | 36 | 1014.2 |
| 20260508183020 | 70 | 167 | 3.5 | 9.6 | 0.00 | 0.00 | 0.00 | 37 | 1014.3 |
| 20260508182507 | 70 | 131 | 1.7 | 9.6 | 0.00 | 0.00 | 0.00 | 37 | 1014.5 |
| 20260508182010 | 69 | 125 | 5.2 | 9.6 | 0.00 | 0.00 | 0.00 | 37 | 1014.6 |
| 20260508181527 | 69 | 161 | 3.5 | 7.8 | 0.00 | 0.00 | 0.00 | 37 | 1014.6 |
| 20260508181013 | 69 | 148 | 2.6 | 6.1 | 0.00 | 0.00 | 0.00 | 40 | 1014.8 |
| 20260508180510 | 69 | 86 | 2.6 | 8.7 | 0.00 | 0.00 | 0.00 | 40 | 1014.8 |
| 20260508180028 | 68 | 141 | 2.6 | 8.7 | 0.00 | 0.00 | 0.00 | 39 | 1014.9 |
| 20260508175506 | 68 | 152 | 3.5 | 9.6 | 0.00 | 0.00 | 0.00 | 40 | 1015.1 |
| 20260508175007 | 68 | 172 | 6.1 | 9.6 | 0.00 | 0.00 | 0.00 | 35 | 1015.2 |
| 20260508174528 | 68 | 216 | 2.6 | 12.2 | 0.00 | 0.00 | 0.00 | 37 | 1015.3 |
| 20260508174008 | 68 | 192 | 5.2 | 13.0 | 0.00 | 0.00 | 0.00 | 39 | 1015.4 |
| 20260508173509 | 68 | 146 | 7.0 | 13.0 | 0.00 | 0.00 | 0.00 | 38 | 1015.6 |
| 20260508173019 | 68 | 171 | 1.7 | 6.1 | 0.00 | 0.00 | 0.00 | 43 | 1015.6 |
| 20260508172511 | 68 | 139 | 1.7 | 9.6 | 0.00 | 0.00 | 0.00 | 40 | 1015.7 |
| 20260508172010 | 68 | 217 | 2.6 | 9.6 | 0.00 | 0.00 | 0.00 | 41 | 1015.8 |
| 20260508171522 | 68 | 197 | 3.5 | 6.1 | 0.00 | 0.00 | 0.00 | 39 | 1015.9 |
| 20260508171010 | 67 | 104 | 2.6 | 7.8 | 0.00 | 0.00 | 0.00 | 39 | 1016.0 |
| 20260508170502 | 67 | 129 | 1.7 | 7.8 | 0.00 | 0.00 | 0.00 | 41 | 1016.1 |
| 20260508170007 | 66 | 159 | 3.5 | 7.0 | 0.00 | 0.00 | 0.00 | 41 | 1016.3 |
| 20260508165503 | 67 | 169 | 3.5 | 7.0 | 0.00 | 0.00 | 0.00 | 40 | 1016.5 |
| 20260508165005 | 66 | 99 | 1.7 | 6.1 | 0.00 | 0.00 | 0.00 | 41 | 1016.4 |
| 20260508164511 | 68 | 85 | 2.6 | 7.8 | 0.00 | 0.00 | 0.00 | 45 | 1016.5 |
| 20260508164007 | 66 | 167 | 4.3 | 7.8 | 0.00 | 0.00 | 0.00 | 43 | 1016.6 |
| 20260508163506 | 67 | 122 | 1.7 | 7.0 | 0.00 | 0.00 | 0.00 | 44 | 1016.6 |
| 20260508163031 | 66 | 185 | 2.6 | 7.8 | 0.00 | 0.00 | 0.00 | 44 | 1016.7 |
| 20260508162507 | 65 | 196 | 2.6 | 7.8 | 0.00 | 0.00 | 0.00 | 43 | 1016.7 |
| 20260508162009 | 66 | 98 | 2.6 | 6.1 | 0.00 | 0.00 | 0.00 | 44 | 1016.8 |
| 20260508161520 | 65 | 203 | 1.7 | 6.1 | 0.00 | 0.00 | 0.00 | 44 | 1016.8 |
| 20260508161007 | 65 | 242 | 0.9 | 6.1 | 0.00 | 0.00 | 0.00 | 47 | 1017.0 |
| 20260508160506 | 65 | 161 | 3.5 | 9.6 | 0.00 | 0.00 | 0.00 | 48 | 1017.1 |
| 20260508160025 | 64 | 112 | 3.5 | 9.6 | 0.00 | 0.00 | 0.00 | 45 | 1017.2 |
| 20260508155510 | 64 | 188 | 3.5 | 7.0 | 0.00 | 0.00 | 0.00 | 49 | 1017.3 |
| 20260508155003 | 64 | 167 | 2.6 | 5.2 | 0.00 | 0.00 | 0.00 | 48 | 1017.4 |
| 20260508154508 | 64 | 169 | 1.7 | 5.2 | 0.00 | 0.00 | 0.00 | 47 | 1017.3 |
| 20260508154010 | 63 | 197 | 2.6 | 7.8 | 0.00 | 0.00 | 0.00 | 43 | 1017.5 |
| 20260508153504 | 64 | 118 | 2.6 | 7.8 | 0.00 | 0.00 | 0.00 | 47 | 1017.5 |
| 20260508153024 | 63 | 181 | 3.5 | 8.7 | 0.00 | 0.00 | 0.00 | 44 | 1017.5 |
| 20260508152507 | 63 | 115 | 2.6 | 9.6 | 0.00 | 0.00 | 0.00 | 42 | 1017.5 |
| 20260508152009 | 63 | 194 | 4.3 | 9.6 | 0.00 | 0.00 | 0.00 | 46 | 1017.5 |
| 20260508151526 | 63 | 153 | 5.2 | 7.8 | 0.00 | 0.00 | 0.00 | 46 | 1017.5 |
| 20260508151007 | 63 | 191 | 1.7 | 5.2 | 0.00 | 0.00 | 0.00 | 50 | 1017.5 |
| 20260508150512 | 62 | 165 | 0.9 | 5.2 | 0.00 | 0.00 | 0.00 | 50 | 1017.6 |
| 20260508150028 | 62 | 82 | 1.7 | 5.2 | 0.00 | 0.00 | 0.00 | 52 | 1017.7 |
| 20260508145510 | 61 | 168 | 1.7 | 4.3 | 0.00 | 0.00 | 0.00 | 52 | 1017.7 |
| 20260508145008 | 61 | 110 | 1.7 | 4.3 | 0.00 | 0.00 | 0.00 | 53 | 1017.7 |
| 20260508144534 | 61 | 80 | 1.7 | 6.1 | 0.00 | 0.00 | 0.00 | 55 | 1017.6 |
| 20260508144008 | 60 | 152 | 0.9 | 6.1 | 0.00 | 0.00 | 0.00 | 57 | 1017.7 |
| 20260508143507 | 60 | 93 | 0.9 | 5.2 | 0.00 | 0.00 | 0.00 | 56 | 1017.7 |
| 20260508143009 | 59 | 156 | 1.7 | 6.1 | 0.00 | 0.00 | 0.00 | 61 | 1017.8 |
| 20260508142504 | 58 | 200 | 1.7 | 6.1 | 0.00 | 0.00 | 0.00 | 61 | 1017.8 |
| 20260508142006 | 58 | 86 | 1.7 | 5.2 | 0.00 | 0.00 | 0.00 | 61 | 1017.8 |
| 20260508141515 | 57 | 191 | 0.9 | 5.2 | 0.00 | 0.00 | 0.00 | 63 | 1017.8 |
| 20260508141009 | 57 | 158 | 1.7 | 6.1 | 0.00 | 0.00 | 0.00 | 63 | 1017.9 |
| 20260508140514 | 56 | 155 | 1.7 | 6.1 | 0.00 | 0.00 | 0.00 | 62 | 1018.0 |
| 20260508140029 | 56 | 108 | 1.7 | 4.3 | 0.00 | 0.00 | 0.00 | 62 | 1018.0 |
| 20260508135512 | 55 | 51 | 0.9 | 4.3 | 0.00 | 0.00 | 0.00 | 63 | 1017.9 |
| 20260508135013 | 55 | 113 | 1.7 | 4.3 | 0.00 | 0.00 | 0.00 | 64 | 1017.9 |
| 20260508134528 | 54 | 179 | 1.7 | 4.3 | 0.00 | 0.00 | 0.00 | 67 | 1017.9 |
| 20260508134012 | 54 | 190 | 0.9 | 3.5 | 0.00 | 0.00 | 0.00 | 66 | 1017.9 |
| 20260508133513 | 54 | 158 | 0.9 | 3.5 | 0.00 | 0.00 | 0.00 | 66 | 1018.0 |
| 20260508133027 | 53 | 120 | 0.9 | 2.6 | 0.00 | 0.00 | 0.00 | 70 | 1017.9 |
| 20260508132508 | 52 | 168 | 0.9 | 2.6 | 0.00 | 0.00 | 0.00 | 71 | 1017.9 |
| 20260508132003 | 52 | 168 | 0.9 | 2.6 | 0.00 | 0.00 | 0.00 | 71 | 1018.0 |
| 20260508131511 | 51 | 88 | 0.0 | 1.7 | 0.00 | 0.00 | 0.00 | 73 | 1018.0 |
| 20260508131007 | 51 | 97 | 0.9 | 1.7 | 0.00 | 0.00 | 0.00 | 73 | 1017.9 |
| 20260508130508 | 50 | 64 | 0.9 | 1.7 | 0.00 | 0.00 | 0.00 | 77 | 1017.9 |
| 20260508130018 | 49 | 64 | 0.9 | 1.7 | 0.00 | 0.00 | 0.00 | 76 | 1017.9 |
| 20260508125509 | 49 | 39 | 0.0 | 2.6 | 0.00 | 0.00 | 0.00 | 83 | 1017.8 |
| 20260508125011 | 48 | 52 | 0.0 | 2.6 | 0.00 | 0.00 | 0.00 | 80 | 1017.8 |
| 20260508124521 | 47 | 68 | 0.9 | 1.7 | 0.00 | 0.00 | 0.00 | 82 | 1017.8 |
| 20260508124011 | 47 | 60 | 0.0 | 1.7 | 0.00 | 0.00 | 0.00 | 85 | 1017.7 |
| 20260508123508 | 46 | 62 | 0.0 | 1.7 | 0.00 | 0.00 | 0.00 | 87 | 1017.7 |
| 20260508123032 | 45 | 65 | 0.0 | 1.7 | 0.00 | 0.00 | 0.00 | 89 | 1017.7 |
| 20260508122508 | 44 | 120 | 0.0 | 2.6 | 0.00 | 0.00 | 0.00 | 90 | 1017.7 |
| 20260508122010 | 43 | 72 | 0.0 | 2.6 | 0.00 | 0.00 | 0.00 | 90 | 1017.6 |
| 20260508121530 | 43 | 85 | 1.7 | 2.6 | 0.00 | 0.00 | 0.00 | 91 | 1017.6 |
| 20260508121009 | 42 | 91 | 0.0 | 1.7 | 0.00 | 0.00 | 0.00 | 92 | 1017.7 |
| 20260508120508 | 41 | 60 | 0.0 | 0.0 | 0.00 | 0.00 | 0.00 | 93 | 1017.6 |
| 20260508120015 | 41 | 146 | 0.0 | 0.0 | 0.00 | 0.00 | 0.00 | 93 | 1017.5 |
| 20260508115510 | 40 | 8 | 0.0 | 0.0 | 0.00 | 0.00 | 0.00 | 94 | 1017.4 |
| 20260508115008 | 39 | 11 | 0.0 | 0.0 | 0.00 | 0.00 | 0.00 | 94 | 1017.5 |
| 20260508114504 | 39 | 26 | 0.0 | 0.0 | 0.00 | 0.00 | 0.00 | 94 | 1017.5 |
| 20260508114003 | 38 | 197 | 0.0 | 0.0 | 0.00 | 0.00 | 0.00 | 94 | 1017.4 |
| 20260508113503 | 37 | 198 | 0.0 | 0.0 | 0.00 | 0.00 | 0.00 | 94 | 1017.4 |
| 20260508113004 | 37 | 198 | 0.0 | 0.0 | 0.00 | 0.00 | 0.00 | 94 | 1017.4 |
| 20260508112504 | 37 | 197 | 0.0 | 0.0 | 0.00 | 0.00 | 0.00 | 93 | 1017.4 |
| 20260508112004 | 36 | 197 | 0.0 | 0.0 | 0.00 | 0.00 | 0.00 | 93 | 1017.3 |
| 20260508111507 | 36 | 198 | 0.0 | 0.0 | 0.00 | 0.00 | 0.00 | 93 | 1017.3 |
| 20260508111006 | 36 | 198 | 0.0 | 0.0 | 0.00 | 0.00 | 0.00 | 93 | 1017.3 |
| 20260508110507 | 36 | 146 | 0.0 | 0.0 | 0.00 | 0.00 | 0.00 | 93 | 1017.3 |
| 20260508110013 | 37 | 161 | 0.0 | 0.0 | 0.00 | 0.00 | 0.00 | 93 | 1017.2 |
| 20260508105506 | 36 | 165 | 0.0 | 0.0 | 0.00 | 0.00 | 0.00 | 93 | 1017.1 |
| 20260508105009 | 36 | 161 | 0.0 | 0.0 | 0.00 | 0.00 | 0.00 | 93 | 1017.1 |
| 20260508104517 | 36 | 161 | 0.0 | 0.0 | 0.00 | 0.00 | 0.00 | 93 | 1017.2 |
| 20260508104009 | 36 | 162 | 0.0 | 0.0 | 0.00 | 0.00 | 0.00 | 93 | 1017.1 |
| 20260508103507 | 36 | 163 | 0.0 | 0.0 | 0.00 | 0.00 | 0.00 | 93 | 1017.0 |
| 20260508103004 | 36 | 160 | 0.0 | 0.0 | 0.00 | 0.00 | 0.00 | 93 | 1017.0 |
| 20260508102503 | 36 | 161 | 0.0 | 0.0 | 0.00 | 0.00 | 0.00 | 93 | 1016.9 |
| 20260508102003 | 36 | 157 | 0.0 | 0.0 | 0.00 | 0.00 | 0.00 | 93 | 1016.8 |
| 20260508101519 | 36 | 143 | 0.0 | 0.0 | 0.00 | 0.00 | 0.00 | 93 | 1016.9 |
| 20260508101004 | 36 | 193 | 0.0 | 0.0 | 0.00 | 0.00 | 0.00 | 93 | 1016.7 |
| 20260508100503 | 36 | 195 | 0.0 | 0.0 | 0.00 | 0.00 | 0.00 | 93 | 1016.7 |
| 20260508100008 | 36 | 196 | 0.0 | 0.0 | 0.00 | 0.00 | 0.00 | 92 | 1016.7 |
| 20260508095507 | 36 | 196 | 0.0 | 0.0 | 0.00 | 0.00 | 0.00 | 92 | 1016.7 |
| 20260508095006 | 36 | 197 | 0.0 | 0.0 | 0.00 | 0.00 | 0.00 | 92 | 1016.8 |
| 20260508094514 | 37 | 197 | 0.0 | 0.0 | 0.00 | 0.00 | 0.00 | 92 | 1016.8 |
| 20260508094009 | 37 | 197 | 0.0 | 0.0 | 0.00 | 0.00 | 0.00 | 92 | 1016.8 |
| 20260508093509 | 37 | 198 | 0.0 | 0.0 | 0.00 | 0.00 | 0.00 | 93 | 1016.8 |
| 20260508093037 | 37 | 198 | 0.0 | 0.0 | 0.00 | 0.00 | 0.00 | 93 | 1016.7 |
| 20260508092506 | 37 | 198 | 0.0 | 0.0 | 0.00 | 0.00 | 0.00 | 93 | 1016.7 |
| 20260508092010 | 36 | 198 | 0.0 | 0.0 | 0.00 | 0.00 | 0.00 | 92 | 1016.7 |
| 20260508091525 | 37 | 198 | 0.0 | 0.0 | 0.00 | 0.00 | 0.00 | 92 | 1016.7 |
| 20260508091009 | 37 | 198 | 0.0 | 0.0 | 0.00 | 0.00 | 0.00 | 92 | 1016.7 |
| 20260508090502 | 37 | 198 | 0.0 | 0.0 | 0.00 | 0.00 | 0.00 | 92 | 1016.7 |
| 20260508090022 | 37 | 198 | 0.0 | 0.0 | 0.00 | 0.00 | 0.00 | 92 | 1016.7 |
| 20260508085503 | 37 | 198 | 0.0 | 0.0 | 0.00 | 0.00 | 0.00 | 91 | 1016.7 |
| 20260508085003 | 38 | 198 | 0.0 | 0.0 | 0.00 | 0.00 | 0.00 | 92 | 1016.8 |
| 20260508084508 | 38 | 198 | 0.0 | 0.0 | 0.00 | 0.00 | 0.00 | 92 | 1016.8 |
| 20260508084008 | 38 | 198 | 0.0 | 0.0 | 0.00 | 0.00 | 0.00 | 92 | 1016.8 |
| 20260508083507 | 38 | 198 | 0.0 | 0.0 | 0.00 | 0.00 | 0.00 | 92 | 1016.8 |
| 20260508083020 | 38 | 198 | 0.0 | 0.0 | 0.00 | 0.00 | 0.00 | 92 | 1017.0 |
| 20260508082506 | 38 | 198 | 0.0 | 0.0 | 0.00 | 0.00 | 0.00 | 91 | 1016.8 |
| 20260508082010 | 38 | 198 | 0.0 | 0.0 | 0.00 | 0.00 | 0.00 | 91 | 1016.8 |
| 20260508081520 | 38 | 198 | 0.0 | 0.0 | 0.00 | 0.00 | 0.00 | 91 | 1016.9 |
| 20260508081009 | 38 | 198 | 0.0 | 0.0 | 0.00 | 0.00 | 0.00 | 91 | 1017.0 |
| 20260508080513 | 38 | 198 | 0.0 | 0.0 | 0.00 | 0.00 | 0.00 | 91 | 1017.0 |
| 20260508080035 | 38 | 198 | 0.0 | 0.0 | 0.00 | 0.00 | 0.00 | 91 | 1017.0 |
| 20260508075503 | 38 | 198 | 0.0 | 0.0 | 0.00 | 0.00 | 0.00 | 91 | 1017.0 |
| 20260508075005 | 38 | 198 | 0.0 | 0.0 | 0.00 | 0.00 | 0.00 | 91 | 1016.8 |
| 20260508074513 | 38 | 198 | 0.0 | 0.0 | 0.00 | 0.00 | 0.00 | 91 | 1017.0 |
| 20260508074004 | 38 | 198 | 0.0 | 1.7 | 0.00 | 0.00 | 0.00 | 91 | 1017.0 |
| 20260508073507 | 39 | 198 | 0.0 | 1.7 | 0.00 | 0.00 | 0.00 | 90 | 1017.0 |
| 20260508073013 | 39 | 198 | 0.0 | 1.7 | 0.00 | 0.00 | 0.00 | 90 | 1017.0 |
| 20260508072506 | 39 | 198 | 0.0 | 1.7 | 0.00 | 0.00 | 0.00 | 90 | 1017.1 |
| 20260508072007 | 39 | 198 | 0.0 | 1.7 | 0.00 | 0.00 | 0.00 | 91 | 1017.2 |
| 20260508071517 | 39 | 198 | 0.0 | 1.7 | 0.00 | 0.00 | 0.00 | 91 | 1017.1 |
| 20260508071008 | 38 | 198 | 0.0 | 1.7 | 0.00 | 0.00 | 0.00 | 90 | 1017.2 |
| 20260508070507 | 39 | 198 | 0.0 | 0.9 | 0.00 | 0.00 | 0.00 | 90 | 1017.2 |
| 20260508070022 | 39 | 198 | 0.0 | 0.0 | 0.00 | 0.00 | 0.00 | 90 | 1017.3 |
| 20260508065508 | 39 | 198 | 0.0 | 1.7 | 0.00 | 0.00 | 0.00 | 90 | 1017.2 |
| 20260508065011 | 39 | 198 | 0.0 | 1.7 | 0.00 | 0.00 | 0.00 | 89 | 1017.2 |
| 20260508064524 | 40 | 198 | 0.0 | 1.7 | 0.00 | 0.00 | 0.00 | 89 | 1017.3 |
| 20260508064012 | 40 | 198 | 0.0 | 1.7 | 0.00 | 0.00 | 0.00 | 89 | 1017.4 |
| 20260508063506 | 40 | 198 | 0.0 | 0.9 | 0.00 | 0.00 | 0.00 | 90 | 1017.3 |
| 20260508063010 | 39 | 198 | 0.0 | 0.0 | 0.00 | 0.00 | 0.00 | 89 | 1017.2 |
| 20260508062507 | 39 | 198 | 0.0 | 0.0 | 0.00 | 0.00 | 0.00 | 88 | 1017.2 |
| 20260508062007 | 40 | 198 | 0.0 | 1.7 | 0.00 | 0.00 | 0.00 | 88 | 1017.2 |
| 20260508061515 | 40 | 198 | 0.0 | 1.7 | 0.00 | 0.00 | 0.00 | 88 | 1017.1 |
| 20260508061011 | 40 | 198 | 0.0 | 1.7 | 0.00 | 0.00 | 0.00 | 88 | 1017.1 |
| 20260508060508 | 41 | 198 | 0.0 | 1.7 | 0.00 | 0.00 | 0.00 | 88 | 1017.1 |
| 20260508060022 | 41 | 198 | 0.0 | 1.7 | 0.00 | 0.00 | 0.00 | 88 | 1017.2 |
| 20260508055507 | 41 | 198 | 0.0 | 1.7 | 0.00 | 0.00 | 0.00 | 87 | 1017.2 |
| 20260508055011 | 41 | 198 | 0.0 | 0.0 | 0.00 | 0.00 | 0.00 | 86 | 1017.2 |
| 20260508054524 | 41 | 198 | 0.0 | 1.7 | 0.00 | 0.00 | 0.00 | 86 | 1017.3 |